カタログに戻る

SL-14 R/B

運用中PO
NORAD 16736·ROCKET BODY·🇷🇺 Russia

打ち上げ May 27, 1986 から Plesetsk Cosmodrome

Loading…

次のパス (今後24時間)

TLE

最新Source: Space-Track

元期: Sep 14, 2026, 08:03 UTC

1 16736U 86039B   26257.33586049  .00000013  00000-0 -13193-5 0  9996
2 16736  82.5372 219.6732 0012428 340.8061  19.2629 13.84861303 36703

AllMySatでSL-14 R/Bをリアルタイム追跡

Download on the App Store